Regional Weather Roundup
Issued by NWS

Home | Current Version | Previous Version | Text Only | Print | Product List | Glossary Off
Versions: 1 2 3 4 5 6 7 8 9 10 11 12 13 14 15 16 17 18 19 20 21 22 23 24 25 26 27 28 29 30 31 32 33 34 35 36 37 38 39 40 41 42 43 44 45 46 47 48 49 50

361
ASUS43 KDTX 140801
RWRMI
MICHIGAN HOURLY REGIONAL WEATHER ROUNDUP
NATIONAL WEATHER SERVICE DETROIT/PONTIAC MI
300 AM EST SUN FEB 14 2016

NOTE: "FAIR" INDICATES FEW OR NO CLOUDS BELOW 12,000 FEET WITH NO
SIGNIFICANT WEATHER AND/OR OBSTRUCTION TO VISIBILITY.

MIZ047>049-052>055-059>063-066>070-074>076-081>083-140900-
SOUTHEAST LOWER MICHIGAN

CITY           SKY/WX    TMP DP  RH WIND       PRES   REMARKS
ADRIAN         PTCLDY     2  -1  88 CALM      30.47S
ALMA           CLOUDY     8   2  78 CALM      30.46S
ANN ARBOR      CLOUDY    -5  -9  83 W3        30.47R
BAD AXE        CLOUDY   -11 -15  81 CALM      30.46R
CARO           PTCLDY    -8  -9  92 CALM      30.45S
DETROIT CITY   CLEAR      7   1  76 W3        30.48R
DETROIT        PTCLDY     2  -2  83 S3        30.49R
FLINT          CLOUDY    -2  -7  79 SW3       30.46S
GROSSE ILE     CLEAR      5   1  85 CALM      30.48R
HILLSDALE      CLOUDY     6   0  74 CALM      30.42S
HOWELL         CLOUDY    -3  -6  85 CALM      30.44S

CITY           SKY/WX    TMP DP  RH WIND       PRES   REMARKS
JACKSON        CLOUDY     0  -5  79 CALM      30.44S
LAMBERTVILLE   CLEAR      3   0  86 CALM      30.49R
LANSING        CLOUDY     4  -3  73 CALM      30.46S
LAPEER         CLOUDY    -2  -5  87 CALM      30.45S
MASON          CLOUDY    -2  -5  86 CALM      30.45S
MONROE         CLEAR      4   0  85 CALM      30.48R
MT. CLEMENS    PTCLDY     2  -2  82 SW5       30.46R WCI  -7
PONTIAC        CLOUDY    -4  -8  83 NW3       30.43S
PORT HOPE        N/A      8  -1  66 W7        30.43R WCI  -3
PORT HURON     CLOUDY    -8 -11  84 W6        30.46F WCI -21
TRI CITIES     CLOUDY     9   1  70 W3        30.47R
MIDLAND        CLOUDY     7   1  76 CALM      30.46S
TROY           CLEAR      7   2  80 W6        30.48S WCI  -3
SAGINAW HB     CLOUDY     5   3  92 CALM      30.47R
$$
MIZ043>046-050>051-056>058-064>065-071>073-077>080-140900-
SOUTHWEST LOWER MICHIGAN

CITY           SKY/WX    TMP DP  RH WIND       PRES   REMARKS
BATTLE CREEK   CLOUDY     2  -4  76 CALM      30.45S
BENTON HARBOR  CLOUDY    13   4  67 SE7       30.46F WCI   3
BIG RAPIDS     CLOUDY     1  -1  88 CALM      30.42S
COLDWATER      CLOUDY    10   0  64 CALM      30.45S
FREMONT        CLOUDY     9   1  69 S5        30.45S WCI   1
HOLLAND        CLOUDY    11   3  70 SE6       30.47S WCI   1
GRAND RAPIDS   CLEAR      4   0  83 CALM      30.46S
IONIA          FAIR       6  -2  72 W5        30.45S WCI  -3
KALAMAZOO      CLOUDY    10   1  67 CALM      30.46R
LUDINGTON      CLOUDY    13   4  68 SE5       30.45R WCI   5
MARSHALL       CLOUDY     2  -3  81 CALM      30.44S
MOUNT PLEASANT CLOUDY    10   2  70 CALM      30.45R
MUSKEGON       CLOUDY    13   2  61 SE7       30.47R WCI   3
SOUTH HAVEN    CLOUDY    12   7  78 SE5       30.47S WCI   5
$$
MIZ016>042-140900-
NORTHERN LOWER MICHIGAN

CITY           SKY/WX    TMP DP  RH WIND       PRES   REMARKS
ALPENA         LGT SNOW   3  -2  79 CALM      30.44R
BEAVER ISLAND  MOCLDY    14   5  67 CALM      30.41S
BELLAIRE       LGT SNOW  10   7  89 CALM      30.44S
CADILLAC       CLOUDY     0  -4  84 CALM      30.37S
CHARLEVOIX     LGT SNOW  12   7  79 S3        30.44S
FRANKFORT      CLOUDY    13   5  71 SE3       30.43S
GAYLORD        CLOUDY     3  -2  79 CALM      30.36S
GRAYLING       CLOUDY     3  -2  79 CALM      30.40S
HARBOR SPRINGS CLOUDY     1  -3  85 NE3       30.41S
HOUGHTON LAKE  CLOUDY     8   3  80 CALM      30.40S
MANISTEE       CLOUDY    10   1  67 CALM      30.44S
OSCODA         CLOUDY    -8 -14  78 W3        30.45S
PELLSTON       CLOUDY    -5 -10  79 CALM      30.43S
ROGERS CITY    LGT SNOW   6   2  83 SW3       30.43S
TRAVERSE CITY  CLOUDY    11   3  70 S5        30.42F WCI   3
$$
MIZ007>008-015-140900-
EASTERN UPPER MICHIGAN

CITY           SKY/WX    TMP DP  RH WIND       PRES   REMARKS
KINROSS        CLOUDY    -6  -9  84 SE6       30.42S WCI -18
MACKINAC ISLAN LGT SNOW   7   4  87 NE8       30.41S WCI  -6
NEWBERRY       FLURRIES  -2  -4  90 SE5       30.39R WCI -12
S. S. MARIE    CLOUDY    -7 -14  71 E3        30.44S
$$
MIZ004>006-011>014-085-140900-
CENTRAL UPPER MICHIGAN

CITY           SKY/WX    TMP DP  RH WIND       PRES   REMARKS
MANISTIQUE     CLEAR     -2  -6  81 NW5       30.40F WCI -12
ESCANABA       CLOUDY   -11 -17  77 CALM      30.42F
MENOMINEE      CLOUDY    -8 -11  84 CALM      30.41F
SAWYER-GWINN   CLEAR    -10 -14  85 CALM      30.33F
$$
MIZ001>003-009>011-084-140900-
WESTERN UPPER MICHIGAN

CITY           SKY/WX    TMP DP  RH WIND       PRES   REMARKS
IRON MOUNTAIN  PTCLDY   -16 -22  74 CALM      30.34F
HOUGHTON       FLURRIES   1  -6  72 SW8       30.31F WCI -13
COPPER HARBOR    N/A      5   0  79 SW8       30.35F WCI  -8
IRONWOOD       CLOUDY    -2 N/A N/A S10       30.26F WCI -19
$$

ABBREVIATIONS USED IN REMARKS
   TC - TEMPERATURE IN CELSIUS
  WCI - WIND CHILL INDEX
   HX - HEAT INDEX
  VSB - VISIBILITY





USA.gov is the U.S. government's official web portal to all federal, state and local government web resources and services.